�N����,����,�~����,�C��,���x,�C��,����,���ϕ���,�ő�u�ԕ���,�ő厞����,���˗�,�I�_���x,�n�����x,�ő啗���N��,DTYPE
"20/04/17","00:10",0.0,8.0,84.4,1014.7,315.3,2.8,4.1,305.0,0.00,5.6,12.7,"00:02:24",1
"20/04/17","00:20",0.0,8.1,84.4,1014.7,314.4,3.1,4.8,324.2,0.00,5.7,12.7,"00:18:24",1
"20/04/17","00:30",0.0,7.7,84.5,1014.9,299.2,2.0,3.5,308.3,0.00,5.3,12.9,"00:27:36",1
"20/04/17","00:40",0.0,7.9,84.8,1014.9,319.5,3.5,5.0,327.3,0.00,5.5,12.7,"00:34:48",1
"20/04/17","00:50",0.0,7.7,84.7,1014.9,322.7,1.8,4.0,333.1,0.00,5.3,12.7,"00:41:44",1
"20/04/17","01:00",0.0,7.4,84.9,1014.9,318.7,2.7,3.7,332.2,0.00,5.1,12.4,"00:53:28",1
"20/04/17","01:10",0.0,7.3,85.4,1014.9,333.6,2.5,4.5,335.8,0.00,5.1,12.3,"01:00:02",1
"20/04/17","01:20",0.0,7.4,85.7,1015.4,325.8,2.5,4.4,337.6,0.00,5.2,12.5,"01:16:40",1
"20/04/17","01:30",0.0,7.5,86.0,1015.4,304.8,2.3,4.4,320.9,0.00,5.4,12.2,"01:28:56",1
"20/04/17","01:40",0.0,7.7,85.9,1015.4,327.3,3.5,5.0,328.6,0.00,5.5,12.3,"01:39:36",1
"20/04/17","01:50",0.0,7.9,85.8,1015.4,328.0,4.0,5.6,329.5,0.00,5.7,12.2,"01:43:44",1
"20/04/17","02:00",0.0,7.8,85.8,1015.9,318.4,3.6,5.6,336.0,0.00,5.6,12.1,"01:57:04",1
"20/04/17","02:10",0.0,7.8,85.9,1015.4,323.5,3.6,5.5,326.1,0.00,5.6,12.1,"02:04:24",1
"20/04/17","02:20",0.0,7.6,86.2,1015.6,316.5,3.5,5.2,336.9,0.00,5.5,12.1,"02:19:20",1
"20/04/17","02:30",0.0,7.4,86.3,1015.2,324.3,4.1,6.3,328.9,0.00,5.3,12.2,"02:25:12",1
"20/04/17","02:40",0.0,7.2,86.3,1015.4,317.2,2.6,4.0,322.7,0.00,5.1,11.9,"02:37:44",1
"20/04/17","02:50",0.0,7.0,86.3,1015.4,311.5,2.8,4.5,330.0,0.00,4.9,12.2,"02:40:56",1
"20/04/17","03:00",0.0,6.9,86.5,1015.4,315.2,2.8,4.8,332.4,0.00,4.8,12.1,"02:59:52",1
"20/04/17","03:10",0.0,7.3,86.5,1015.4,316.5,4.0,5.5,322.6,0.00,5.2,11.7,"03:08:08",1
"20/04/17","03:20",0.0,7.3,86.4,1015.4,319.7,3.0,4.4,309.5,0.00,5.2,12.0,"03:11:28",1
"20/04/17","03:30",0.0,7.0,86.5,1015.6,325.8,3.0,4.4,325.2,0.00,4.9,11.9,"03:25:12",1
"20/04/17","03:40",0.0,6.8,86.6,1015.6,304.3,2.0,4.5,339.0,0.00,4.8,12.0,"03:31:28",1
"20/04/17","03:50",0.0,6.6,86.8,1015.4,298.1,2.2,4.3,333.3,0.00,4.6,11.8,"03:42:40",1
"20/04/17","04:00",0.0,6.3,87.2,1015.6,299.9,2.1,3.3,317.1,0.00,4.4,11.7,"03:57:20",1
"20/04/17","04:10",0.0,6.1,87.5,1015.6,303.6,1.8,4.2,339.3,0.00,4.2,11.8,"04:00:02",1
"20/04/17","04:20",0.0,6.4,87.8,1015.6,315.8,3.0,5.0,319.9,0.00,4.6,11.7,"04:16:48",1
"20/04/17","04:30",0.0,6.1,88.0,1015.4,281.6,1.5,2.8,318.1,0.00,4.3,11.5,"04:20:16",1
"20/04/17","04:40",0.0,5.8,88.3,1015.6,289.1,1.7,2.6,327.2,0.00,4.1,11.6,"04:39:28",1
"20/04/17","04:50",0.0,5.4,88.6,1014.9,322.3,2.0,3.2,314.0,0.00,3.7,11.3,"04:46:56",1
"20/04/17","05:00",0.0,5.0,89.1,1015.4,298.5,1.6,2.5,325.1,0.00,3.4,11.5,"04:50:02",1
"20/04/17","05:10",0.0,5.2,89.4,1015.4,286.2,1.7,2.1,310.9,0.00,3.6,11.5,"05:08:50",1
"20/04/17","05:20",0.0,5.6,89.7,1015.6,306.6,2.2,2.9,308.2,0.00,4.1,11.5,"05:14:16",1
"20/04/17","05:30",0.0,5.7,89.9,1015.6,310.5,1.7,2.8,322.6,0.00,4.2,11.2,"05:20:16",1
"20/04/17","05:40",0.0,5.8,90.2,1015.6,303.9,1.5,2.4,331.3,0.00,4.4,11.2,"05:36:08",1
"20/04/17","05:50",0.0,5.6,90.3,1015.6,312.1,2.3,3.1,319.3,0.00,4.2,11.2,"05:47:36",1
"20/04/17","06:00",0.0,5.4,90.7,1015.6,301.6,0.8,1.6,314.9,0.00,4.0,11.4,"05:50:32",1
"20/04/17","06:10",0.0,5.7,90.9,1015.9,306.5,1.2,1.8,313.5,0.01,4.4,11.2,"06:02:24",1
"20/04/17","06:20",0.0,6.0,91.0,1015.9,302.4,1.8,2.1,310.3,0.02,4.7,11.5,"06:17:44",1
"20/04/17","06:30",0.0,6.5,91.3,1016.4,296.4,1.1,1.8,315.5,0.04,5.2,11.3,"06:20:08",1
"20/04/17","06:40",0.0,7.3,91.3,1016.6,324.8,1.8,2.6,325.4,0.06,6.0,11.3,"06:31:44",1
"20/04/17","06:50",0.0,8.2,91.4,1016.6,309.8,1.6,2.2,316.6,0.09,6.9,11.4,"06:43:52",1
"20/04/17","07:00",0.0,9.1,91.1,1017.1,288.5,1.5,2.1,329.3,0.11,7.8,11.4,"06:51:36",1
"20/04/17","07:10",0.0,9.8,90.5,1017.1,269.0,0.6,1.2,283.8,0.09,8.4,11.4,"07:00:24",1
"20/04/17","07:20",0.0,9.9,90.1,1017.3,323.9,1.1,1.9,334.7,0.08,8.4,11.6,"07:14:48",1
"20/04/17","07:30",0.0,10.7,90.1,1017.5,285.5,1.0,1.4,309.3,0.13,9.2,11.5,"07:24:16",1
"20/04/17","07:40",0.0,11.7,89.1,1017.5,289.2,0.6,2.2,321.4,0.16,10.0,11.6,"07:33:04",1
"20/04/17","07:50",0.0,12.5,87.3,1017.8,291.6,0.5,1.0,249.9,0.19,10.5,11.7,"07:40:40",1
"20/04/17","08:00",0.0,12.9,85.4,1018.0,255.1,0.8,1.3,243.7,0.18,10.6,11.8,"07:52:40",1
"20/04/17","08:10",0.0,14.2,82.7,1018.2,270.0,0.6,1.4,241.8,0.23,11.3,12.0,"08:05:12",1
"20/04/17","08:20",0.0,14.3,77.8,1018.0,223.4,1.0,1.4,241.7,0.20,10.5,12.0,"08:12:08",1
"20/04/17","08:30",0.0,15.5,72.4,1017.8,253.2,0.7,2.1,314.9,0.30,10.6,12.3,"08:25:36",1
"20/04/17","08:40",0.0,16.2,69.3,1017.5,110.7,1.0,2.1,118.2,0.32,10.6,12.5,"08:34:24",1
"20/04/17","08:50",0.0,16.4,68.0,1017.1,115.8,1.2,3.3,145.8,0.35,10.5,12.7,"08:46:56",1
"20/04/17","09:00",0.0,16.5,67.9,1017.1,109.8,1.6,3.6,98.4,0.37,10.6,13.0,"08:53:52",1
"20/04/17","09:10",0.0,16.5,68.2,1016.8,109.6,1.8,5.0,125.8,0.39,10.7,12.9,"09:02:32",1
"20/04/17","09:20",0.0,17.0,68.1,1016.6,152.0,1.7,4.2,157.2,0.41,11.1,13.3,"09:10:24",1
"20/04/17","09:30",0.0,17.3,66.9,1016.6,123.9,1.8,4.2,116.1,0.43,11.1,13.4,"09:23:28",1
"20/04/17","09:40",0.0,17.7,66.0,1016.4,153.7,1.5,3.7,119.2,0.45,11.3,13.8,"09:32:40",1
"20/04/17","09:50",0.0,18.1,64.6,1016.4,143.8,1.8,4.3,132.1,0.47,11.4,13.9,"09:46:00",1
"20/04/17","10:00",0.0,18.1,64.0,1016.4,150.2,2.6,5.1,131.1,0.48,11.2,13.8,"09:51:20",1
"20/04/17","10:10",0.0,18.2,63.3,1016.8,140.0,2.3,5.5,130.8,0.50,11.2,14.4,"10:07:52",1
"20/04/17","10:20",0.0,18.6,63.1,1016.8,139.6,1.8,4.0,123.7,0.51,11.5,14.4,"10:11:52",1
"20/04/17","10:30",0.0,18.9,62.5,1016.1,146.8,1.8,4.1,116.5,0.49,11.6,14.8,"10:26:08",1
"20/04/17","10:40",0.0,19.3,61.9,1016.1,153.2,1.7,3.6,201.0,0.50,11.9,15.0,"10:32:56",1
"20/04/17","10:50",0.0,19.1,61.6,1015.9,127.9,2.2,4.4,133.7,0.52,11.6,15.0,"10:43:36",1
"20/04/17","11:00",0.0,19.4,61.9,1015.6,124.7,1.8,4.4,125.7,0.54,12.0,15.4,"10:52:40",1
"20/04/17","11:10",0.0,19.4,60.5,1015.6,83.8,1.8,4.2,113.2,0.56,11.6,15.5,"11:02:32",1
"20/04/17","11:20",0.0,19.6,60.4,1015.4,94.7,1.6,4.0,114.3,0.45,11.8,15.6,"11:12:56",1
"20/04/17","11:30",0.0,19.7,60.4,1014.9,107.8,2.1,4.5,106.0,0.46,11.9,16.0,"11:22:08",1
"20/04/17","11:40",0.0,20.3,59.1,1015.2,159.0,1.2,3.6,128.7,0.51,12.1,16.1,"11:39:20",1
"20/04/17","11:50",0.0,20.3,59.3,1014.9,118.2,2.2,5.0,126.9,0.51,12.2,16.3,"11:41:28",1
"20/04/17","12:00",0.0,20.0,58.9,1014.7,83.5,1.6,3.2,48.6,0.36,11.8,16.5,"11:58:08",1
"20/04/17","12:10",0.0,20.3,59.8,1014.5,133.4,2.1,4.0,122.5,0.41,12.3,16.5,"12:05:04",1
"20/04/17","12:20",0.0,20.6,57.8,1014.7,142.1,2.1,4.8,145.5,0.41,12.0,16.7,"12:10:48",1
"20/04/17","12:30",0.0,20.8,57.3,1014.5,97.8,1.3,3.4,116.8,0.37,12.1,16.6,"12:22:16",1
"20/04/17","12:40",0.0,21.0,57.3,1014.7,110.5,2.0,4.4,134.3,0.41,12.3,17.0,"12:38:16",1
"20/04/17","12:50",0.0,20.9,56.9,1014.7,119.1,1.8,4.5,125.5,0.32,12.1,16.8,"12:42:16",1
"20/04/17","13:00",0.0,20.3,59.7,1014.2,113.6,3.2,6.6,120.8,0.29,12.3,16.9,"12:50:56",1
"20/04/17","13:10",0.0,20.7,59.1,1014.0,110.5,3.2,5.9,109.4,0.47,12.5,16.9,"13:06:08",1
"20/04/17","13:20",0.0,21.3,58.7,1013.8,118.0,2.7,5.5,118.6,0.54,12.9,17.0,"13:15:12",1
"20/04/17","13:30",0.0,21.2,57.7,1014.0,102.8,2.7,8.3,122.8,0.46,12.6,17.2,"13:29:28",1
"20/04/17","13:40",0.0,20.5,58.5,1014.0,86.9,2.1,4.2,112.8,0.20,12.1,17.1,"13:31:52",1
"20/04/17","13:50",0.0,19.9,60.4,1014.2,106.1,2.3,6.0,111.3,0.12,12.1,17.0,"13:46:56",1
"20/04/17","14:00",0.0,19.6,62.2,1014.5,109.1,2.2,4.4,121.9,0.11,12.2,16.9,"13:54:16",1
"20/04/17","14:10",0.0,19.8,62.0,1014.0,79.1,1.8,4.2,110.0,0.16,12.4,17.1,"14:02:32",1
"20/04/17","14:20",0.0,19.5,62.5,1013.8,108.6,2.6,5.1,126.0,0.10,12.2,17.0,"14:19:20",1
"20/04/17","14:30",0.0,19.8,60.9,1013.8,138.7,2.7,5.6,144.9,0.17,12.1,16.9,"14:28:24",1
"20/04/17","14:40",0.0,20.1,58.8,1013.8,150.9,3.0,6.4,129.6,0.26,11.8,16.8,"14:38:32",1
"20/04/17","14:50",0.0,19.9,60.4,1013.8,138.4,2.5,5.2,127.4,0.12,12.1,17.0,"14:48:24",1
"20/04/17","15:00",0.0,19.3,62.4,1013.3,129.3,2.3,4.2,122.3,0.05,12.0,16.7,"14:53:44",1
"20/04/17","15:10",0.0,18.5,64.9,1013.5,106.8,2.6,5.2,107.9,0.04,11.8,16.5,"15:08:28",1
"20/04/17","15:20",0.0,18.4,66.4,1013.3,103.2,3.1,6.5,118.9,0.07,12.1,16.7,"15:12:56",1
"20/04/17","15:30",0.0,18.1,67.1,1013.5,104.0,2.8,4.4,109.0,0.08,11.9,16.4,"15:29:20",1
"20/04/17","15:40",0.0,17.9,67.8,1013.8,97.1,2.3,5.1,112.3,0.06,11.9,16.5,"15:38:48",1
"20/04/17","15:50",0.0,17.7,68.5,1014.0,96.8,2.3,4.3,106.5,0.03,11.9,16.5,"15:44:48",1
"20/04/17","16:00",0.0,17.5,69.2,1014.0,98.4,2.6,4.8,66.6,0.03,11.8,16.1,"15:52:00",1
"20/04/17","16:10",0.0,17.3,70.1,1013.8,95.9,2.5,4.5,69.6,0.04,11.8,16.2,"16:08:32",1
"20/04/17","16:20",0.0,17.2,70.8,1013.8,101.1,2.2,4.0,113.0,0.04,11.9,16.0,"16:15:44",1
"20/04/17","16:30",0.0,17.0,71.5,1014.0,109.7,2.2,4.1,114.1,0.03,11.9,16.3,"16:23:12",1
"20/04/17","16:40",0.0,17.0,72.1,1014.2,116.5,2.2,3.6,116.0,0.03,12.0,16.1,"16:35:52",1
"20/04/17","16:50",0.0,16.9,72.4,1014.0,102.8,2.3,4.5,111.7,0.03,11.9,15.8,"16:46:00",1
"20/04/17","17:00",0.0,16.8,73.0,1014.0,106.4,2.0,4.1,119.0,0.02,12.0,15.9,"16:51:04",1
"20/04/17","17:10",0.0,16.7,73.5,1014.0,111.2,2.6,4.8,122.7,0.03,12.0,15.9,"17:02:24",1
"20/04/17","17:20",0.0,16.6,73.8,1014.0,110.0,2.0,3.7,114.0,0.02,12.0,15.9,"17:13:52",1
"20/04/17","17:30",0.0,16.5,74.4,1014.0,107.4,2.0,4.3,113.0,0.01,12.0,15.7,"17:22:32",1
"20/04/17","17:40",0.0,16.4,74.8,1014.0,113.7,2.1,3.7,121.6,0.00,12.0,15.7,"17:34:24",1
"20/04/17","17:50",0.0,16.4,75.0,1014.5,130.3,2.1,3.9,119.0,0.00,12.0,15.7,"17:40:16",1
"20/04/17","18:00",0.0,16.2,75.4,1013.8,122.1,1.8,3.3,102.3,0.00,11.9,15.5,"17:51:44",1
"20/04/17","18:10",0.0,16.2,75.8,1013.8,109.0,1.3,3.3,123.2,0.00,12.0,15.5,"18:02:00",1
"20/04/17","18:20",0.0,16.1,75.7,1013.8,64.3,1.2,3.1,116.0,0.00,11.9,15.5,"18:14:08",1
"20/04/17","18:30",0.0,15.9,76.1,1013.3,38.1,0.8,2.4,24.0,0.00,11.7,15.5,"18:20:48",1
"20/04/17","18:40",0.0,15.7,76.4,1013.5,328.1,0.7,2.2,18.1,0.00,11.6,15.4,"18:30:32",1
"20/04/17","18:50",0.0,15.6,77.2,1013.5,44.0,0.8,2.1,59.5,0.00,11.7,15.2,"18:46:48",1
"20/04/17","19:00",0.0,15.6,77.9,1014.0,75.3,1.0,1.9,121.4,0.00,11.8,15.2,"18:52:16",1
"20/04/17","19:10",0.0,15.4,78.6,1014.0,33.4,0.8,2.2,10.1,0.00,11.7,15.1,"19:07:52",1
"20/04/17","19:20",0.0,15.3,79.1,1014.2,354.5,0.8,1.8,336.9,0.00,11.7,15.3,"19:14:16",1
"20/04/17","19:30",0.0,15.2,79.6,1014.0,353.1,1.0,1.7,20.6,0.00,11.7,14.9,"19:23:20",1
"20/04/17","19:40",0.0,15.1,80.1,1014.0,313.2,0.7,1.4,353.9,0.00,11.7,14.9,"19:37:20",1
"20/04/17","19:50",0.0,15.1,80.6,1013.8,61.3,0.5,1.2,95.4,0.00,11.8,15.2,"19:45:52",1
"20/04/17","20:00",0.0,15.0,81.0,1013.8,346.6,0.8,1.8,335.6,0.00,11.8,15.2,"19:50:08",1
"20/04/17","20:10",0.0,15.0,81.3,1013.8,333.0,0.7,1.8,308.6,0.00,11.9,15.0,"20:02:48",1
"20/04/17","20:20",0.0,15.0,81.6,1014.0,347.5,0.7,1.6,322.8,0.00,11.9,14.8,"20:19:36",1
"20/04/17","20:30",0.0,14.9,81.7,1014.0,306.7,0.8,1.7,323.8,0.00,11.8,15.0,"20:23:44",1
"20/04/17","20:40",0.0,14.5,82.0,1013.5,294.7,0.7,1.0,318.5,0.00,11.5,14.7,"20:37:52",1
"20/04/17","20:50",0.0,14.5,82.5,1013.5,333.5,1.2,1.9,340.2,0.00,11.6,14.7,"20:47:12",1
"20/04/17","21:00",0.0,14.3,82.9,1013.0,314.2,1.2,2.2,333.0,0.00,11.5,14.7,"20:55:04",1
"20/04/17","21:10",0.0,14.4,83.7,1013.3,303.1,0.8,2.2,350.9,0.00,11.7,14.6,"21:02:48",1
"20/04/17","21:20",0.0,14.6,84.0,1013.0,256.3,1.3,2.2,245.0,0.00,12.0,14.6,"21:13:12",1
"20/04/17","21:30",0.0,14.4,84.2,1012.8,317.4,1.3,2.1,309.7,0.00,11.8,14.7,"21:21:04",1
"20/04/17","21:40",0.0,14.3,84.5,1012.8,291.9,1.1,1.7,324.2,0.00,11.8,14.6,"21:33:28",1
"20/04/17","21:50",0.0,14.3,84.8,1012.3,332.4,1.2,1.7,339.1,0.00,11.8,14.7,"21:47:12",1
"20/04/17","22:00",0.0,14.2,85.1,1012.1,294.2,1.6,2.4,314.8,0.00,11.8,14.7,"21:54:24",1
"20/04/17","22:10",0.0,14.2,85.3,1011.9,302.3,1.5,2.1,322.8,0.00,11.8,14.4,"22:08:32",1
"20/04/17","22:20",0.0,14.3,85.5,1011.9,296.6,1.5,2.2,314.4,0.00,11.9,14.6,"22:13:28",1
"20/04/17","22:30",0.0,14.3,85.5,1011.6,286.7,1.2,1.8,269.8,0.00,11.9,14.4,"22:27:12",1
"20/04/17","22:40",0.0,14.2,85.5,1011.6,283.6,1.0,1.6,320.9,0.00,11.8,14.4,"22:35:36",1
"20/04/17","22:50",0.0,14.1,85.7,1011.9,320.6,1.1,1.7,339.8,0.00,11.8,14.2,"22:49:36",1
"20/04/17","23:00",0.0,13.9,85.7,1011.6,322.4,1.5,2.0,322.3,0.00,11.6,14.2,"22:53:28",1
"20/04/17","23:10",0.0,13.7,86.0,1011.9,300.5,1.3,2.0,305.6,0.00,11.4,14.1,"23:00:02",1
"20/04/17","23:20",0.0,13.7,86.4,1011.6,331.2,1.3,1.9,305.1,0.00,11.5,14.2,"23:10:08",1
"20/04/17","23:30",0.0,13.7,86.5,1011.2,352.3,1.2,2.2,355.7,0.00,11.5,14.2,"23:23:44",1
"20/04/17","23:40",0.0,13.4,86.8,1010.9,317.2,1.0,1.7,327.9,0.00,11.3,14.3,"23:30:56",1
"20/04/17","23:50",0.0,13.3,87.2,1010.0,301.0,1.3,2.4,321.0,0.00,11.3,14.1,"23:49:20",1
"20/04/17","24:00",0.0,13.3,87.3,1009.7,304.7,1.2,2.0,334.0,0.00,11.3,14.2,"23:50:08",1
